Location: Cornospital
(48.0620°N, 3.3837°W)
Time: 19:39:19
(UTC+00:00)

Cosmos 1302 Rocket - Pass Details

Date: 17 June 2021
Orbit: 757 x 775 km, 74.0° (Epoch: 02 August)

Event Time Altitude Azimuth Distance (km) Brightness Sun altitude
Exits shadow 22:45:00 11° 209° (SSW) 2,240 6.0 -15.8°
Maximum altitude 22:50:03 74° 294° (WNW) 804 4.2 -16.1°
Drops below altitude 10° 22:55:19 10° 20° (NNE) 2,313 7.2 -16.3°
Sets 22:57:42 0° 22° (NNE) 3,241 8.1 -16.5°
